Regional Weather Roundup
Issued by NWS

Home | Current Version | Previous Version | Graphics & Text | Print | Product List | Glossary On
Versions: 1 2 3 4 5 6 7 8 9 10 11 12 13 14 15 16 17 18 19 20 21 22 23 24 25 26 27 28 29 30 31 32 33 34 35 36 37 38 39 40 41 42 43 44 45 46 47 48 49 50
000
ASUS43 KLOT 280712
RWRIL

ILLINOIS REGIONAL WEATHER ROUNDUP
NATIONAL WEATHER SERVICE CHICAGO/ROMEOVILLE IL
200 AM CDT TUE JUL 28 2015

NOTE: "FAIR" INDICATES FEW OR NO CLOUDS BELOW 12,000 FEET WITH NO
SIGNIFICANT WEATHER AND/OR OBSTRUCTIONS TO VISIBILITY.

* THESE STATIONS ARE NOT UNDER NWS QUALITY CONTROL. THEY ALSO MAY NOT
  REPORT WEATHER SUCH AS PRECIPITATION OR FOG.

ILZ001-002-007-009-015-016-024-280800-
NORTHWEST ILLINOIS

CITY           SKY/WX    TMP DP  RH WIND       PRES   REMARKS
MOLINE         CLEAR     72  69  90 SE6       29.95S
STERLING*      CLEAR     68  64  88 E3        29.98R
SAVANNA*       CLEAR     71  67  87 E3        29.97F
$$

ILZ003-004-008-010-011-017-018-280800-
NORTH CENTRAL ILLINOIS

CITY           SKY/WX    TMP DP  RH WIND       PRES   REMARKS
ROCKFORD       PTCLDY    71  63  75 E7        30.01F
FREEPORT*      CLEAR     64  63  94 E3        30.02S
ROCHELLE*      CLEAR     68  64  86 E5        30.01R
DE KALB*       CLEAR     65  62  89 E7        30.01S
PERU*          CLEAR     72  65  80 E5        29.99R
$$

ILZ005-006-012>014-019>023-280800-
NORTHEAST ILLINOIS

CITY           SKY/WX    TMP DP  RH WIND       PRES   REMARKS
CHICAGO-OHARE  PTCLDY    73  66  78 NE5       30.00R
CHICAGO-MIDWAY CLOUDY    76  66  71 E6        29.99R
AURORA         PTCLDY    68  63  84 NE6       30.00S
LANSING*       MOCLDY    71  63  77 E5        30.00R
JOLIET*        PTCLDY    73  67  82 CALM      29.99S
WAUKEGAN       PTCLDY    65  64  97 CALM      30.02R
DUPAGE AIRPORT PTCLDY    70  64  81 NE3       30.01R
KANKAKEE*      PTCLDY    70  67  91 CALM      29.99S
WHEELING       MOCLDY    70  66  87 CALM      30.02R
MORRIS*        PTCLDY    70  66  88 CALM      29.96S
ROMEOVILLE*    PTCLDY    71  65  83 E7        30.00S
NORTHERLY ISL    N/A     72  68  87 CALM        N/A
$$

LMZ740>746-280800-
SOUTHERN LAKE MICHIGAN

STATION/POSITION SKY/WX   TEMP    WIND        PRES    VSBY  WAVE
                          AIR SEA DIR/SP/G                  HT/PER
                          (F)     (DEG/KT/KT) (MB)    (MI)  (FT/S)
HARRISON CRIB              74      80/ 13/ 14   N/A
BURNHAM HARBOR             72      50/  4/  6   N/A
CALUMET HARBOR             74      90/  3/  5   N/A
BURNS HARBOR               74     100/  9/ 11 1015.9F
MICHIGAN CITY              73      80/  8/ 10   N/A
MICHIGAN CITY 6N           75 75  130/  6/  6   N/A           1/ 3
ST. JOSEPH                 73 73  160/  6/  8   N/A           1
$$

ILZ025>027-034>036-040-047-049-050-058-095>099-280800-
WEST-CENTRAL ILLINOIS

CITY           SKY/WX    TMP DP  RH WIND       PRES   REMARKS
QUINCY         PTCLDY    71  69  93 SE5       29.95R
GALESBURG*     CLEAR     73  70  92 CALM      29.96S
MACOMB*        PTCLDY    71  71  99 CALM      29.97S FOG
JACKSONVILLE*  MOCLDY    75  73  93 CALM      29.95S
PITTSFIELD*    MOCLDY    72  70  94 CALM      29.97S
$$

ILZ028>032-037-038-041>044-048-051>054-059>061-280800-
CENTRAL ILLINOIS

CITY           SKY/WX    TMP DP  RH WIND       PRES   REMARKS
PONTIAC        PTCLDY    72  68  87 E7        29.98S
BLOOMINGTON    MOCLDY    73  72  97 SE6       29.99R
DECATUR        CLOUDY    75  72  90 CALM      29.96R
PEORIA         PTCLDY    77  71  82 E5        29.97R
LACON*         CLEAR     72  68  87 CALM      29.96R
LINCOLN*       CLOUDY    76  73  88 CALM      29.95F
SPRINGFIELD    MOCLDY    79  74  84 CALM      29.96R HX  82
TAYLORVILLE    CLOUDY    72  72 100 CALM      29.96R FOG
$$

ILZ033-039-045-046-055>057-062-063-280800-
EAST-CENTRAL ILLINOIS

CITY           SKY/WX    TMP DP  RH WIND       PRES   REMARKS
CHAMPAIGN      MOCLDY    73  71  93 E5        29.97R FOG
DANVILLE*      MOCLDY    72  71  96 NE5       29.95R
RANTOUL*       MOCLDY    75  72  89 E3        29.97R
MATTOON        MOCLDY    75  71  87 S3        29.95R
PARIS*         PTCLDY    73  72  98 E3        29.97R FOG
$$

ILZ079-100>102-280800-
SOUTHWEST ILLINOIS

CITY           SKY/WX    TMP DP  RH WIND       PRES   REMARKS
ALTON          MOCLDY    71  70  97 CALM      29.96R
BELLEVILLE     CLOUDY    73  73 100 CALM      29.93F
CAHOKIA*       MOCLDY    75  72  90 CALM      29.94F
SPARTA*        CLOUDY    75  73  93 CALM      29.95F
$$

ILZ064>066-069>071-074>076-080>082-084>086-088>090-092>094-280800-
SOUTH-CENTRAL ILLINOIS

CITY           SKY/WX    TMP DP  RH WIND       PRES   REMARKS
CARBONDALE     CLOUDY    75  73  93 SE3       29.94F
CAIRO*         MOCLDY    76  75  97 CALM      29.94F
EFFINGHAM*     CLOUDY    76  73  90 CALM      29.97R FOG
MARION         CLOUDY    77  75  94 CALM      29.95F
MT. VERNON     CLOUDY    73  68  83 CALM      29.95F
CENTRALIA*     CLOUDY    73  70  91 CALM      29.96R
SALEM*         CLOUDY    76  72  87 CALM      29.96R
METROPOLIS*    CLOUDY    76  76 100 CALM      29.96S FOG
$$

ILZ067-068-072-073-078-083-087-091-280800-
SOUTHEAST ILLINOIS

CITY           SKY/WX    TMP DP  RH WIND       PRES   REMARKS
LAWRENCEVILLE  CLOUDY    74  72  93 W6        29.96R
FLORA*         CLOUDY    73  71  95 CALM      29.95S
FAIRFIELD*     CLOUDY    75  74  98 CALM      29.94S
HARRISBURG*    MOCLDY    73  73 100 CALM      29.96S
ROBINSON*      MOCLDY    71  70  97 CALM      29.96R FOG
CARMI*         CLOUDY    73  68  85 CALM      29.94S
$$

ABBREVIATIONS USED IN REMARKS
   TC - TEMPERATURE IN CELSIUS
  WCI - WIND CHILL INDEX
   HX - HEAT INDEX
  VSB - VISIBILITY
$$



USA.gov is the U.S. government's official web portal to all federal, state and local government web resources and services.